Location: Unspecified
(0.0000°N, 0.0000°E)
Time: 10:24:55
(UTC+00:00)

A-11 Canister half - Pass Details

Date: 09 August 2021
Orbit: 1515 x 1685 km, 47.2° (Epoch: 27 September)

Event Time Altitude Azimuth Distance (km) Brightness Sun altitude
Rises 00:41:58 0° 304° (NW) 4,928 - -71.8°
Reaches altitude 10° 00:45:22 10° 298° (WNW) 3,935 - -71.4°
Maximum altitude 00:54:42 43° 230° (SW) 2,205 - -70.1°
Drops below altitude 10° 01:03:54 10° 162° (SSE) 3,853 - -68.6°
Sets 01:07:14 0° 155° (SSE) 4,816 - -68.0°
